الصفحة الرئيسية
METAR-TAF:

METAR-TAF

مطار :

Lake County Airport

Leadville, كولورادو, الولايات المتحدة

دائرة عرض: 39-13-41N, خط طول: 106-18-58W, ارتفاع: 3026 متر

مراقبة الطقس الحالي

تاريخ ووقت الإصدار 8 دقيقة قبل الساعة 14:53UTC
ريح 4 عقدة من الشمال/الشمال الشرقي
درجة الحرارة -10°درجة مئوية
الرطوبة 61%
ضغط 1029 hPa
الرؤية: 16.1 كم
سماء صافية

METAR: KLXV 141453Z AUTO 02004KT 10SM CLR M10/M16 A3039 RMK AO2 SLP328 T11001156 53009

زمن: 08:01 (15:01 UTC)


TAF: مفقودة

أرصاد الطقس والتوقعات من أكثر من 4000 مطار (تقارير الطقس للمطار METAR والتنبؤ بالطقس بالمطارTAF).

المحطات المتاحة هي النقط الصفراء والحمراء على الخريطة.

حرك المؤشر فوق النقطة لمعرفة اسم المحطة.

ثم انقر لمعرفة أرصاد وتوقعات الطقس.

لتغيير الخارطة: اضغط على الأزرار الخضراء مع رمز الصليب الأسود للتكبير. على الزر الأخضر مع شرطة للتصغير، أو على الأسهم الخضراء للخرائط المجاورة.


METAR-TAF: